QPF
0.02 0.01 0.01 0.01 0.02 0.02 0.03 0.02 0.02 0.01 0.01 0.01 0.01 0.01 0.01 0.02 0.02 0.03 0.04 0.05 0.07 0.13 0.13 0.11 0.10 0.08 0.06 0.06 0.06 0.06 0.06 0.06 0.05 0.05 0.04 0.05 0.05 0.05 0.04 0.04 0.04 0.03 0.04
0.04 0.02 0.01 0.01 0.02 0.03 0.03 0.03 0.02 0.01 0.01 0.01 0.01 0.01 0.02 0.02 0.02 0.01 0.02 0.03 0.03 0.05 0.08 0.10 0.08 0.07 0.05 0.04 0.05 0.06 0.05 0.05 0.05 0.06 0.05 0.04 0.04 0.04 0.03 0.03 0.03 0.04 0.05
0.03 0.03 0.04 0.03 0.02 0.01 0.02 0.04 0.03 0.02 0.02 0.02 0.02 0.02 0.02 0.02 0.02 0.01 0.01 0.01 0.01 0.02 0.05 0.07 0.05 0.06 0.05 0.04 0.05 0.04 0.04 0.05 0.05 0.06 0.05 0.04 0.04 0.04 0.03 0.02 0.03 0.04 0.04
0.02 0.02 0.03 0.03 0.02 0.01 0.01 0.02 0.02 0.01 0.01 0.01 0.03 0.03 0.03 0.03 0.03 0.02 0.02 0.01 0.01 0.01 0.02 0.03 0.02 0.03 0.03 0.04 0.05 0.05 0.05 0.05 0.05 0.05 0.04 0.04 0.05 0.04 0.04 0.03 0.03 0.03 0.04
0.02 0.03 0.03 0.02 0.01 0.03 0.05 0.03 0.02 0.01 0.01 0.01 0.02 0.03 0.03 0.03 0.03 0.03 0.02 0.01 0.01 0.00 0.00 0.01 0.01 0.01 0.02 0.04 0.06 0.09 0.09 0.07 0.05 0.05 0.05 0.05 0.04 0.03 0.03 0.02 0.03 0.03 0.02
0.02 0.03 0.03 0.02 0.01 0.02 0.03 0.04 0.05 0.03 0.02 0.02 0.02 0.02 0.02 0.02 0.02 0.04 0.04 0.02 0.01 0.00 0.01 0.01 0.01 0.01 0.02 0.04 0.07 0.08 0.07 0.06 0.06 0.08 0.07 0.04 0.02 0.02 0.02 0.02 0.03 0.04 0.04
0.03 0.03 0.04 0.03 0.03 0.03 0.02 0.02 0.03 0.04 0.05 0.04 0.03 0.02 0.02 0.02 0.02 0.02 0.02 0.02 0.02 0.01 0.00 0.01 0.01 0.01 0.02 0.02 0.04 0.05 0.06 0.08 0.11 0.11 0.10 0.06 0.03 0.02 0.02 0.02 0.03 0.04 0.05
0.02 0.03 0.04 0.03 0.02 0.02 0.01 0.02 0.02 0.01 0.03 0.05 0.05 0.04 0.03 0.03 0.02 0.01 0.01 0.01 0.01 0.01 0.01 0.01 0.01 0.01 0.02 0.03 0.03 0.03 0.04 0.08 0.12 0.11 0.10 0.08 0.05 0.03 0.02 0.02 0.03 0.04 0.04
0.02 0.02 0.04 0.04 0.02 0.01 0.01 0.01 0.02 0.01 0.02 0.03 0.04 0.05 0.04 0.04 0.03 0.03 0.01 0.01 0.01 0.01 0.01 0.02 0.02 0.02 0.02 0.03 0.03 0.03 0.03 0.04 0.07 0.09 0.09 0.08 0.07 0.05 0.03 0.02 0.03 0.03 0.05
0.02 0.02 0.03 0.03 0.02 0.01 0.01 0.01 0.01 0.01 0.01 0.02 0.02 0.02 0.03 0.03 0.03 0.03 0.02 0.01 0.01 0.01 0.02 0.01 0.02 0.02 0.02 0.03 0.03 0.03 0.02 0.02 0.04 0.05 0.06 0.05 0.06 0.06 0.05 0.04 0.03 0.03 0.04
0.02 0.01 0.01 0.01 0.02 0.01 0.01 0.01 0.01 0.01 0.01 0.01 0.02 0.02 0.01 0.01 0.01 0.01 0.02 0.02 0.01 0.01 0.01 0.01 0.02 0.02 0.02 0.03 0.03 0.02 0.01 0.01 0.03 0.04 0.05 0.04 0.05 0.06 0.07 0.05 0.04 0.03 0.04
0.02 0.01 0.01 0.01 0.01 0.01 0.01 0.01 0.01 0.02 0.02 0.01 0.02 0.02 0.01 0.02 0.02 0.01 0.01 0.01 0.02 0.01 0.01 0.01 0.01 0.02 0.03 0.03 0.03 0.03 0.02 0.02 0.02 0.04 0.05 0.06 0.08 0.10 0.06 0.04 0.03 0.03 0.04
0.01 0.02 0.02 0.02 0.02 0.01 0.02 0.01 0.01 0.01 0.02 0.01 0.02 0.01 0.01 0.02 0.01 0.01 0.01 0.01 0.01 0.01 0.01 0.02 0.01 0.01 0.02 0.03 0.03 0.03 0.03 0.04 0.04 0.04 0.07 0.10 0.13 0.09 0.04 0.04 0.04 0.05 0.06
0.01 0.01 0.02 0.02 0.02 0.01 0.02 0.02 0.02 0.02 0.02 0.02 0.02 0.02 0.02 0.01 0.01 0.01 0.01 0.01 0.02 0.01 0.01 0.02 0.02 0.01 0.01 0.02 0.02 0.02 0.02 0.03 0.04 0.04 0.07 0.12 0.12 0.07 0.04 0.03 0.03 0.04 0.07
0.02 0.02 0.01 0.01 0.01 0.01 0.01 0.02 0.02 0.02 0.02 0.02 0.02 0.01 0.01 0.01 0.01 0.01 0.01 0.01 0.01 0.02 0.02 0.01 0.02 0.01 0.01 0.02 0.02 0.02 0.02 0.02 0.03 0.04 0.05 0.09 0.07 0.05 0.03 0.03 0.03 0.03 0.05
0.02 0.03 0.03 0.02 0.01 0.01 0.01 0.01 0.01 0.01 0.01 0.01 0.01 0.01 0.01 0.01 0.01 0.01 0.01 0.01 0.01 0.02 0.02 0.01 0.01 0.01 0.01 0.02 0.03 0.03 0.03 0.02 0.03 0.03 0.04 0.05 0.05 0.04 0.02 0.01 0.02 0.04 0.05
0.03 0.03 0.03 0.03 0.02 0.02 0.01 0.01 0.00 0.01 0.01 0.01 0.01 0.01 0.01 0.01 0.01 0.01 0.01 0.01 0.01 0.01 0.01 0.00 0.00 0.01 0.02 0.02 0.02 0.02 0.03 0.02 0.02 0.03 0.04 0.04 0.04 0.04 0.02 0.02 0.02 0.03 0.03
0.03 0.03 0.02 0.01 0.01 0.01 0.01 0.01 0.01 0.01 0.01 0.01 0.01 0.01 0.01 0.02 0.01 0.01 0.01 0.01 0.01 0.01 0.01 0.01 0.01 0.01 0.01 0.01 0.01 0.02 0.03 0.02 0.03 0.04 0.03 0.04 0.04 0.03 0.03 0.03 0.03 0.03 0.04
0.02 0.01 0.01 0.01 0.01 0.01 0.01 0.01 0.01 0.01 0.01 0.01 0.01 0.01 0.01 0.01 0.02 0.02 0.02 0.02 0.01 0.01 0.00 0.01 0.01 0.01 0.01 0.01 0.01 0.01 0.02 0.02 0.03 0.04 0.03 0.04 0.04 0.03 0.02 0.02 0.02 0.02 0.04
0.01 0.01 0.00 0.01 0.01 0.02 0.02 0.01 0.01 0.01 0.01 0.02 0.02 0.02 0.01 0.01 0.01 0.02 0.02 0.03 0.03 0.01 0.01 0.01 0.01 0.01 0.01 0.01 0.01 0.01 0.01 0.02 0.02 0.03 0.04 0.03 0.04 0.03 0.02 0.01 0.01 0.01 0.02
0.02 0.02 0.01 0.01 0.01 0.02 0.02 0.02 0.01 0.01 0.02 0.02 0.02 0.02 0.02 0.02 0.02 0.02 0.02 0.03 0.04 0.04 0.02 0.01 0.01 0.01 0.01 0.01 0.01 0.01 0.02 0.02 0.02 0.03 0.04 0.03 0.03 0.04 0.03 0.01 0.01 0.01 0.01
0.02 0.02 0.01 0.01 0.01 0.01 0.01 0.02 0.02 0.01 0.01 0.01 0.01 0.01 0.02 0.02 0.03 0.02 0.03 0.04 0.04 0.04 0.03 0.01 0.01 0.01 0.01 0.01 0.01 0.02 0.02 0.03 0.02 0.03 0.03 0.04 0.03 0.03 0.03 0.02 0.01 0.01 0.01
0.02 0.02 0.01 0.01 0.01 0.01 0.01 0.01 0.02 0.01 0.01 0.01 0.01 0.01 0.01 0.01 0.03 0.03 0.03 0.03 0.03 0.04 0.04 0.03 0.01 0.01 0.01 0.01 0.01 0.02 0.02 0.03 0.03 0.04 0.04 0.04 0.03 0.02 0.01 0.01 0.02 0.02 0.01
0.02 0.02 0.02 0.01 0.00 0.01 0.01 0.01 0.01 0.01 0.01 0.02 0.02 0.01 0.01 0.01 0.02 0.03 0.03 0.03 0.02 0.02 0.03 0.03 0.03 0.02 0.01 0.01 0.01 0.01 0.02 0.02 0.02 0.03 0.04 0.05 0.03 0.02 0.02 0.01 0.02 0.02 0.02
0.03 0.04 0.03 0.02 0.01 0.01 0.01 0.01 0.01 0.00 0.01 0.01 0.01 0.01 0.01 0.01 0.03 0.04 0.04 0.04 0.03 0.02 0.02 0.02 0.03 0.04 0.03 0.01 0.01 0.01 0.02 0.03 0.03 0.04 0.04 0.06 0.05 0.03 0.03 0.02 0.02 0.02 0.02
0.03 0.03 0.03 0.04 0.03 0.02 0.02 0.01 0.01 0.01 0.01 0.01 0.00 0.00 0.01 0.01 0.03 0.04 0.05 0.04 0.04 0.03 0.03 0.02 0.01 0.02 0.03 0.02 0.02 0.02 0.02 0.03 0.03 0.04 0.04 0.05 0.05 0.03 0.03 0.03 0.02 0.02 0.02
MSLP
1013.53 1013.94 1014.37 1014.81 1015.26 1015.71 1016.15 1016.58 1016.97 1017.33 1017.63 1017.88 1018.08 1018.26 1018.43 1018.63 1018.85 1019.11 1019.39 1019.68 1019.96 1020.21 1020.41 1020.57 1020.69 1020.79 1020.88 1020.96 1021.06 1021.14 1021.22 1021.27 1021.30 1021.29 1021.26 1021.21 1021.14 1021.06 1020.96 1020.83 1020.66 1020.45 1020.20
1013.58 1014.00 1014.44 1014.90 1015.39 1015.88 1016.37 1016.85 1017.30 1017.70 1018.06 1018.35 1018.60 1018.82 1019.01 1019.21 1019.43 1019.67 1019.92 1020.18 1020.43 1020.67 1020.87 1021.04 1021.19 1021.32 1021.45 1021.57 1021.68 1021.78 1021.86 1021.91 1021.92 1021.90 1021.85 1021.78 1021.69 1021.59 1021.47 1021.32 1021.13 1020.91 1020.65
1013.68 1014.11 1014.57 1015.06 1015.57 1016.10 1016.63 1017.16 1017.66 1018.13 1018.54 1018.90 1019.20 1019.45 1019.68 1019.89 1020.09 1020.30 1020.51 1020.72 1020.92 1021.12 1021.30 1021.47 1021.63 1021.79 1021.94 1022.09 1022.23 1022.34 1022.43 1022.48 1022.49 1022.46 1022.40 1022.31 1022.21 1022.10 1021.96 1021.80 1021.61 1021.38 1021.13
1013.82 1014.26 1014.74 1015.25 1015.78 1016.34 1016.91 1017.48 1018.04 1018.56 1019.03 1019.45 1019.82 1020.12 1020.38 1020.60 1020.80 1020.97 1021.14 1021.29 1021.43 1021.57 1021.71 1021.85 1022.01 1022.17 1022.34 1022.52 1022.68 1022.82 1022.92 1022.97 1022.98 1022.95 1022.89 1022.80 1022.70 1022.58 1022.44 1022.27 1022.08 1021.85 1021.60
1013.94 1014.41 1014.91 1015.43 1015.99 1016.57 1017.16 1017.76 1018.35 1018.92 1019.46 1019.94 1020.37 1020.74 1021.05 1021.31 1021.50 1021.66 1021.78 1021.87 1021.95 1022.02 1022.11 1022.21 1022.34 1022.50 1022.68 1022.87 1023.05 1023.21 1023.33 1023.39 1023.41 1023.38 1023.32 1023.24 1023.13 1023.02 1022.88 1022.72 1022.53 1022.30 1022.05
1014.01 1014.51 1015.03 1015.57 1016.14 1016.72 1017.32 1017.94 1018.55 1019.16 1019.75 1020.29 1020.80 1021.24 1021.61 1021.91 1022.14 1022.29 1022.39 1022.43 1022.45 1022.47 1022.49 1022.55 1022.65 1022.80 1022.98 1023.18 1023.37 1023.55 1023.68 1023.77 1023.79 1023.77 1023.71 1023.63 1023.53 1023.42 1023.30 1023.14 1022.96 1022.74 1022.48
1013.98 1014.52 1015.06 1015.62 1016.19 1016.77 1017.37 1017.98 1018.60 1019.23 1019.85 1020.46 1021.03 1021.55 1022.00 1022.36 1022.64 1022.81 1022.91 1022.93 1022.92 1022.88 1022.86 1022.88 1022.96 1023.08 1023.26 1023.47 1023.68 1023.87 1024.02 1024.12 1024.15 1024.13 1024.08 1024.00 1023.91 1023.80 1023.68 1023.54 1023.36 1023.15 1022.89
1013.82 1014.39 1014.97 1015.54 1016.12 1016.69 1017.28 1017.88 1018.50 1019.13 1019.78 1020.43 1021.06 1021.65 1022.18 1022.61 1022.95 1023.18 1023.29 1023.32 1023.30 1023.24 1023.20 1023.19 1023.25 1023.37 1023.56 1023.77 1024.00 1024.21 1024.37 1024.47 1024.51 1024.50 1024.44 1024.36 1024.26 1024.16 1024.05 1023.92 1023.75 1023.54 1023.28
1013.50 1014.13 1014.74 1015.34 1015.93 1016.51 1017.08 1017.67 1018.27 1018.90 1019.56 1020.23 1020.90 1021.55 1022.15 1022.66 1023.06 1023.34 1023.51 1023.57 1023.56 1023.51 1023.47 1023.46 1023.52 1023.65 1023.85 1024.08 1024.33 1024.55 1024.73 1024.84 1024.88 1024.86 1024.80 1024.72 1024.62 1024.51 1024.40 1024.28 1024.12 1023.91 1023.66
1013.05 1013.73 1014.40 1015.04 1015.65 1016.24 1016.82 1017.39 1017.98 1018.59 1019.25 1019.93 1020.62 1021.31 1021.95 1022.52 1022.98 1023.32 1023.53 1023.64 1023.66 1023.65 1023.63 1023.66 1023.74 1023.90 1024.12 1024.38 1024.65 1024.90 1025.09 1025.21 1025.26 1025.24 1025.17 1025.07 1024.97 1024.86 1024.75 1024.63 1024.48 1024.28 1024.04
1012.48 1013.23 1013.96 1014.65 1015.31 1015.93 1016.52 1017.10 1017.68 1018.29 1018.92 1019.60 1020.29 1020.99 1021.65 1022.24 1022.74 1023.12 1023.39 1023.54 1023.61 1023.64 1023.67 1023.74 1023.87 1024.07 1024.33 1024.63 1024.94 1025.21 1025.43 1025.57 1025.62 1025.60 1025.53 1025.43 1025.32 1025.21 1025.09 1024.97 1024.83 1024.64 1024.40
1011.82 1012.64 1013.45 1014.21 1014.93 1015.60 1016.23 1016.83 1017.42 1018.02 1018.64 1019.29 1019.97 1020.65 1021.30 1021.89 1022.40 1022.81 1023.10 1023.29 1023.41 1023.50 1023.58 1023.71 1023.89 1024.14 1024.45 1024.80 1025.14 1025.46 1025.70 1025.87 1025.94 1025.93 1025.87 1025.77 1025.66 1025.55 1025.43 1025.32 1025.18 1025.00 1024.77
1011.10 1012.00 1012.88 1013.73 1014.53 1015.27 1015.95 1016.59 1017.20 1017.81 1018.42 1019.05 1019.69 1020.34 1020.95 1021.52 1022.02 1022.42 1022.73 1022.95 1023.11 1023.24 1023.38 1023.56 1023.80 1024.11 1024.47 1024.87 1025.26 1025.61 1025.89 1026.09 1026.19 1026.21 1026.17 1026.08 1025.98 1025.88 1025.77 1025.65 1025.52 1025.34 1025.12
1010.36 1011.33 1012.29 1013.22 1014.10 1014.91 1015.66 1016.36 1017.01 1017.64 1018.25 1018.86 1019.47 1020.08 1020.65 1021.18 1021.64 1022.02 1022.33 1022.56 1022.75 1022.92 1023.11 1023.34 1023.63 1023.99 1024.40 1024.84 1025.27 1025.66 1025.98 1026.22 1026.36 1026.42 1026.41 1026.35 1026.27 1026.18 1026.09 1025.98 1025.85 1025.68 1025.45
1009.61 1010.64 1011.67 1012.67 1013.63 1014.52 1015.35 1016.10 1016.81 1017.47 1018.10 1018.71 1019.30 1019.86 1020.39 1020.88 1021.30 1021.65 1021.95 1022.18 1022.39 1022.59 1022.82 1023.09 1023.42 1023.82 1024.26 1024.73 1025.19 1025.61 1025.97 1026.25 1026.43 1026.54 1026.57 1026.56 1026.52 1026.46 1026.38 1026.29 1026.17 1026.00 1025.78
1008.89 1009.97 1011.05 1012.11 1013.12 1014.08 1014.96 1015.79 1016.55 1017.25 1017.91 1018.53 1019.12 1019.66 1020.17 1020.62 1021.01 1021.34 1021.62 1021.87 1022.09 1022.31 1022.56 1022.86 1023.22 1023.64 1024.10 1024.58 1025.05 1025.49 1025.88 1026.19 1026.41 1026.56 1026.65 1026.68 1026.69 1026.66 1026.62 1026.55 1026.45 1026.30 1026.09
1008.24 1009.34 1010.45 1011.53 1012.58 1013.57 1014.50 1015.38 1016.19 1016.94 1017.64 1018.30 1018.90 1019.45 1019.95 1020.39 1020.77 1021.10 1021.37 1021.62 1021.86 1022.10 1022.37 1022.69 1023.06 1023.48 1023.93 1024.41 1024.88 1025.32 1025.71 1026.04 1026.29 1026.48 1026.61 1026.70 1026.75 1026.78 1026.78 1026.75 1026.68 1026.56 1026.37
1007.66 1008.78 1009.89 1010.97 1012.02 1013.03 1013.98 1014.88 1015.73 1016.53 1017.27 1017.97 1018.61 1019.19 1019.70 1020.16 1020.55 1020.89 1021.18 1021.44 1021.70 1021.96 1022.25 1022.57 1022.94 1023.35 1023.79 1024.24 1024.68 1025.10 1025.48 1025.80 1026.07 1026.29 1026.46 1026.59 1026.70 1026.78 1026.83 1026.85 1026.82 1026.75 1026.61
1007.19 1008.31 1009.40 1010.46 1011.49 1012.47 1013.41 1014.32 1015.18 1016.02 1016.80 1017.54 1018.23 1018.85 1019.40 1019.89 1020.32 1020.68 1021.00 1021.30 1021.58 1021.86 1022.17 1022.50 1022.86 1023.25 1023.65 1024.07 1024.47 1024.85 1025.19 1025.50 1025.76 1025.99 1026.18 1026.35 1026.50 1026.63 1026.74 1026.82 1026.86 1026.85 1026.77
1006.82 1007.93 1009.00 1010.02 1011.00 1011.93 1012.84 1013.73 1014.59 1015.44 1016.26 1017.04 1017.77 1018.44 1019.04 1019.57 1020.04 1020.45 1020.81 1021.13 1021.45 1021.76 1022.08 1022.42 1022.77 1023.14 1023.51 1023.88 1024.23 1024.56 1024.86 1025.13 1025.37 1025.59 1025.80 1025.99 1026.18 1026.36 1026.53 1026.67 1026.78 1026.84 1026.85
1006.53 1007.64 1008.68 1009.65 1010.57 1011.45 1012.31 1013.15 1014.00 1014.84 1015.67 1016.48 1017.25 1017.96 1018.61 1019.19 1019.70 1020.15 1020.55 1020.92 1021.27 1021.61 1021.95 1022.30 1022.65 1023.00 1023.34 1023.67 1023.97 1024.25 1024.50 1024.72 1024.93 1025.13 1025.33 1025.54 1025.76 1025.98 1026.20 1026.41 1026.59 1026.74 1026.83
1006.28 1007.40 1008.42 1009.35 1010.22 1011.04 1011.83 1012.63 1013.44 1014.26 1015.09 1015.91 1016.70 1017.44 1018.13 1018.75 1019.30 1019.79 1020.23 1020.63 1021.01 1021.38 1021.74 1022.10 1022.46 1022.80 1023.12 1023.42 1023.68 1023.92 1024.12 1024.31 1024.48 1024.66 1024.85 1025.05 1025.29 1025.54 1025.80 1026.07 1026.32 1026.54 1026.71
1006.04 1007.17 1008.18 1009.09 1009.91 1010.68 1011.42 1012.17 1012.94 1013.73 1014.54 1015.36 1016.15 1016.92 1017.63 1018.28 1018.86 1019.38 1019.84 1020.28 1020.68 1021.07 1021.46 1021.83 1022.20 1022.54 1022.86 1023.14 1023.39 1023.59 1023.76 1023.92 1024.06 1024.22 1024.39 1024.59 1024.83 1025.10 1025.40 1025.70 1026.00 1026.28 1026.52
1005.75 1006.90 1007.93 1008.83 1009.63 1010.37 1011.07 1011.78 1012.51 1013.27 1014.05 1014.85 1015.65 1016.41 1017.14 1017.80 1018.40 1018.93 1019.42 1019.88 1020.30 1020.72 1021.12 1021.51 1021.90 1022.25 1022.58 1022.86 1023.10 1023.30 1023.46 1023.60 1023.72 1023.86 1024.02 1024.21 1024.45 1024.72 1025.03 1025.36 1025.69 1026.00 1026.28
1005.39 1006.57 1007.62 1008.54 1009.34 1010.07 1010.75 1011.43 1012.13 1012.86 1013.63 1014.41 1015.19 1015.95 1016.68 1017.35 1017.96 1018.51 1019.01 1019.48 1019.92 1020.35 1020.77 1021.18 1021.59 1021.96 1022.31 1022.61 1022.86 1023.07 1023.23 1023.37 1023.49 1023.62 1023.77 1023.95 1024.18 1024.45 1024.75 1025.08 1025.41 1025.73 1026.02
1004.95 1006.16 1007.24 1008.19 1009.02 1009.76 1010.44 1011.11 1011.80 1012.51 1013.25 1014.02 1014.79 1015.54 1016.27 1016.94 1017.56 1018.12 1018.64 1019.12 1019.57 1020.02 1020.45 1020.88 1021.31 1021.70 1022.07 1022.40 1022.68 1022.90 1023.08 1023.23 1023.36 1023.49 1023.63 1023.81 1024.02 1024.28 1024.56 1024.88 1025.19 1025.50 1025.77
Thickness
5724 5724 5723 5721 5721 5721 5720 5720 5720 5719 5719 5718 5717 5717 5717 5716 5715 5714 5712 5710 5710 5711 5711 5712 5712 5712 5712 5712 5712 5712 5712 5712 5713 5713 5713 5714 5714 5714 5715 5716 5716 5717 5717
5720 5719 5718 5717 5717 5716 5715 5715 5715 5713 5713 5712 5711 5711 5710 5710 5709 5708 5707 5705 5704 5704 5705 5706 5707 5707 5707 5707 5708 5708 5708 5708 5708 5708 5708 5709 5709 5709 5710 5711 5712 5712 5713
5716 5715 5714 5712 5712 5711 5712 5711 5710 5709 5707 5706 5706 5705 5704 5704 5704 5704 5702 5701 5700 5699 5699 5700 5701 5702 5702 5703 5704 5704 5703 5703 5704 5703 5704 5704 5704 5704 5705 5706 5706 5707 5708
5712 5710 5709 5708 5707 5706 5706 5706 5705 5703 5702 5701 5701 5700 5700 5698 5698 5698 5698 5697 5696 5696 5694 5694 5695 5696 5697 5698 5698 5699 5699 5699 5699 5699 5699 5699 5699 5699 5700 5701 5702 5702 5702
5707 5707 5705 5703 5703 5702 5701 5701 5700 5699 5696 5694 5694 5694 5694 5693 5692 5692 5693 5693 5692 5691 5691 5689 5689 5690 5692 5692 5693 5694 5694 5694 5694 5694 5694 5694 5694 5695 5695 5696 5696 5697 5697
5703 5702 5701 5700 5699 5698 5696 5695 5694 5692 5691 5690 5690 5688 5688 5688 5687 5686 5686 5686 5686 5686 5686 5686 5686 5686 5686 5686 5687 5688 5688 5689 5689 5689 5689 5689 5689 5690 5690 5691 5691 5691 5691
5699 5698 5697 5696 5694 5693 5691 5691 5689 5687 5685 5686 5684 5682 5682 5683 5682 5680 5679 5679 5679 5678 5679 5680 5681 5682 5682 5680 5680 5681 5682 5683 5683 5683 5684 5684 5684 5684 5685 5685 5686 5686 5686
5694 5693 5693 5692 5690 5687 5686 5685 5683 5682 5681 5681 5680 5677 5675 5675 5674 5675 5674 5673 5673 5672 5673 5674 5675 5675 5676 5677 5676 5675 5676 5677 5678 5678 5678 5678 5678 5679 5679 5680 5680 5680 5680
5690 5689 5688 5688 5686 5685 5683 5680 5679 5677 5676 5676 5677 5674 5671 5670 5669 5669 5668 5668 5667 5667 5667 5667 5668 5669 5670 5670 5671 5669 5669 5670 5671 5672 5672 5673 5673 5673 5674 5674 5674 5674 5675
5686 5684 5684 5683 5682 5681 5679 5678 5676 5675 5672 5671 5670 5669 5670 5669 5664 5663 5663 5663 5662 5661 5662 5662 5662 5662 5663 5663 5663 5662 5663 5663 5664 5665 5666 5667 5668 5668 5668 5668 5668 5669 5669
5682 5681 5680 5679 5678 5677 5676 5674 5672 5671 5670 5668 5666 5664 5663 5662 5663 5660 5657 5656 5657 5657 5656 5656 5656 5656 5656 5657 5656 5656 5656 5656 5657 5659 5660 5661 5662 5662 5663 5663 5663 5664 5664
5679 5678 5676 5675 5675 5673 5672 5670 5669 5667 5666 5665 5663 5662 5660 5658 5657 5656 5655 5653 5652 5651 5650 5650 5650 5650 5650 5650 5650 5649 5650 5650 5651 5652 5653 5654 5656 5657 5657 5658 5658 5659 5659
5677 5675 5673 5672 5671 5669 5667 5666 5665 5664 5663 5661 5660 5659 5657 5656 5654 5653 5652 5650 5648 5647 5645 5645 5645 5645 5645 5645 5645 5643 5644 5645 5645 5647 5648 5649 5650 5650 5651 5652 5653 5653 5654
5675 5673 5670 5669 5667 5665 5663 5662 5661 5660 5660 5658 5656 5654 5652 5652 5650 5648 5646 5644 5642 5642 5642 5642 5641 5640 5640 5640 5639 5639 5640 5640 5640 5641 5642 5643 5644 5644 5645 5646 5646 5648 5648
5671 5669 5667 5665 5663 5661 5659 5658 5657 5657 5656 5654 5653 5651 5648 5647 5645 5644 5642 5641 5638 5636 5637 5637 5636 5636 5635 5634 5634 5635 5636 5635 5635 5636 5636 5637 5638 5638 5639 5639 5640 5641 5642
5667 5665 5663 5661 5659 5657 5655 5654 5653 5652 5651 5649 5647 5646 5644 5643 5641 5639 5638 5637 5635 5634 5633 5634 5632 5631 5630 5630 5629 5630 5631 5630 5631 5631 5631 5632 5633 5633 5633 5634 5635 5635 5635
5663 5662 5660 5658 5656 5654 5652 5649 5648 5647 5646 5645 5644 5642 5640 5638 5637 5635 5633 5632 5631 5630 5628 5629 5628 5627 5626 5626 5625 5626 5626 5627 5627 5626 5626 5626 5627 5628 5628 5628 5629 5629 5629
5659 5658 5657 5654 5653 5650 5648 5646 5644 5643 5642 5641 5639 5637 5636 5633 5632 5631 5629 5628 5627 5626 5625 5623 5623 5622 5622 5622 5621 5620 5621 5623 5623 5621 5621 5621 5622 5623 5623 5623 5624 5623 5623
5654 5654 5652 5650 5648 5647 5645 5643 5641 5639 5638 5636 5635 5633 5631 5629 5627 5626 5625 5624 5623 5622 5621 5620 5619 5618 5617 5617 5615 5615 5616 5617 5617 5617 5617 5616 5617 5617 5618 5618 5618 5618 5617
5649 5648 5648 5646 5644 5642 5640 5638 5636 5635 5634 5632 5630 5628 5627 5625 5623 5621 5620 5620 5619 5617 5617 5616 5615 5614 5613 5611 5611 5611 5611 5612 5612 5613 5613 5612 5612 5612 5613 5613 5613 5613 5612
5642 5642 5641 5640 5638 5637 5635 5633 5631 5629 5628 5626 5625 5623 5621 5619 5617 5615 5615 5614 5613 5612 5612 5611 5610 5610 5608 5606 5606 5606 5607 5608 5609 5609 5609 5609 5610 5610 5609 5608 5608 5607 5607
5637 5636 5634 5633 5632 5631 5627 5624 5623 5624 5623 5622 5620 5618 5616 5613 5611 5608 5607 5607 5606 5607 5607 5606 5607 5606 5605 5604 5602 5602 5602 5603 5603 5604 5603 5605 5605 5605 5605 5605 5603 5602 5602
5631 5630 5629 5627 5626 5624 5620 5618 5616 5617 5618 5617 5616 5614 5611 5609 5606 5606 5603 5601 5600 5600 5599 5601 5602 5602 5601 5600 5598 5597 5597 5597 5597 5598 5597 5599 5600 5600 5600 5600 5598 5597 5596
5626 5624 5623 5622 5620 5618 5614 5612 5611 5612 5612 5612 5610 5609 5607 5605 5603 5601 5600 5599 5598 5597 5595 5595 5596 5595 5594 5593 5592 5592 5591 5591 5592 5591 5591 5592 5594 5594 5595 5594 5593 5592 5591
5620 5619 5618 5617 5616 5613 5609 5607 5605 5607 5607 5606 5605 5604 5602 5600 5597 5594 5594 5594 5593 5591 5588 5587 5586 5586 5584 5583 5583 5584 5585 5585 5587 5587 5586 5586 5588 5588 5589 5590 5588 5586 5585
5614 5613 5612 5611 5610 5609 5604 5601 5598 5601 5601 5600 5599 5598 5595 5593 5591 5588 5589 5589 5588 5587 5584 5582 5580 5579 5579 5577 5575 5577 5579 5581 5582 5583 5581 5580 5582 5582 5583 5584 5583 5582 5580